Terminal Aerodrome Forecast
Issued by NWS Aberdeen, SD

Home | Current Version | Previous Version | Text Only | Print | Product List | Glossary On
Versions: 1 2 3 4 5 6 7 8 9 10 11 12 13 14 15 16 17 18 19 20 21 22 23 24 25 26 27 28 29 30 31 32 33 34 35 36 37 38 39 40 41 42 43 44 45 46 47 48 49 50
000
FTAK31 PAFA 021926 AAB
TAFABR
TAF AMD
PABR 021926Z 0219/0318 10020KT 3SM BLSN BKN120 OVC200
      TEMPO 0219/0223 1SM BLSN BKN100
     FM030900 10016KT 4SM BR BKN050 OVC100
     FM031400 11020KT 2SM BLSN OVC050=

USA.gov is the U.S. government's official web portal to all federal, state and local government web resources and services.